User: anonymous   Login
Location: Unspecified
(0.0000°N, 0.0000°E)
Time: 21:17:42
(UTC+00:00)
Language:

DICE 1 - Orbit

View from above orbital plane
View from above orbital plane
View from above satellite
View from above satellite

Ground track
Ground track

The orbit data is extracted from the following two-line orbital elements,

1 37851U 11061B   17141.65353150 +.00002177 +00000-0 +12449-3 0  9995
2 37851 101.7421 355.2590 0189615 173.3156 187.0651 15.00992774302284
Epoch (UTC): 21 May 2017 15:41:05
Eccentricity: 0.0189615
inclination: 101.7421°
perigee height: 432 km
apogee height: 695 km
right ascension of ascending node: 355.2590°
argument of perigee: 173.3156°
revolutions per day: 15.00992774
mean anomaly at epoch: 187.0651°
orbit number at epoch: 30228

The dashed part of the orbit path shows where the satellite is in the earth's shadow,  

DLR